BREEZE-M DEB, 41320

Orbit data source: Space-Track

BREEZE-M DEB, 41320 is space debris in HEO originally from a launch on Thu, 17 May 2012 UTC launched from the Tyuratam Missile And Space Complex (TTMTR). Debris objects in space refer to the collection of defunct objects orbiting the Earth. Examples of debris include non-operational satellites, rocket bodies, and fragments generated from explosions, collisions, or faulty payload assembly.

Loading next visibility...
Identifier
41320, 2012-026G
Orbit
HEO
Country
Flag of CISCIS
Related business
Manufacturer
Khrunichev
Mission
Spacecraft
Bus & Motor
Unknown
Mass
Unknown
Launch date (UTC)
2012-05-17 (13 years ago)
Launch vehicle
Unknown
Launch site
Tyuratam Missile And Space Complex (TTMTR)
Object type
Payload
Rocket body
Debris
Shape & HBR
Unknown
Radar Cross Section
RCS unknown

Expand to show TLE details & history
Last TLE update: 1 day ago

TLE from 1 day ago
0 BREEZE-M DEB
1 41320U 12026G   25260.81930891 -.00000137  00000-0  00000-0 0  9997
2 41320   9.9278 162.5547 4110417 357.5780   0.9617  1.76040290 62639
Epoch: 2025-09-17T19:39Z
TLE epoch observation values (Epoch: 2025-09-17T19:39:48.289Z)
Latitude
0.00002°
Longitude
-129.38717°
Altitude
10,664.102 km
Speed
5.746 km/s
True Right ascension
10h 50m 12s
True Declination
0° 00' 00"
Sunlit
Object was in daylight at epoch
Visualization orbit readout
Latitude
Unknown
Longitude
Unknown
Altitude
Unknown
Speed
Unknown
Apparent Right ascension
Unknown
Apparent Declination
Unknown
Sunlit
N/A
Visualization observer readout
Local Sidereal Time
14:41:14
Azimuth
Unknown
Elevation
Unknown
Doppler factor
Unknown
Orbital elements
Apogee altitude
34,506.735 km
Perigee altitude
10,686.904 km
Semi-major axis
28,974.957 km
Eccentricity
0.41104
Inclination
9.9278°
RAAN
162.5547°
Arg. of periapsis
357.578°
True anomaly
2.52697°
Mean anomaly
0.9617°
Eccentric anomaly
1.63273°
Mean motion
0.44006 °/min
Orbital period
818.08 mins
BSTAR
0
Loading maneuver chart data...
Computing Atmospheric mass density...
Loading historical data...
Loading historical data...
Loading historical data...
Loading historical data...
Loading historical data...
Loading historical data...
Loading historical data...

Documentation

Showing up to 5 results
|